{"data":{"norad_id":59187,"epoch":"2026-05-25T00:24:17.178336Z","epoch_age_seconds":73439,"freshness":"FRESH","line1":"1 59187U 24045K   26145.01686549 -.00000236  00000+0  96138-6 0  9996","line2":"2 59187  43.0026  21.5759 0001200 276.7774  83.2941 15.27588535124833","mean_motion":15.27588535,"eccentricity":0.00012,"inclination_deg":43.0026,"raan_deg":21.5759,"arg_perigee_deg":276.7774,"mean_anomaly_deg":83.2941,"bstar":9.6138e-7,"rev_number":12483,"period_min":94.266222022935,"perigee_km":482.20020003348,"apogee_km":483.84687856291,"semimajor_km":6861.1605392982,"source":"CELESTRAK","updated_at":"2026-05-25T13:38:18.860491Z"}}